[[{"header":{"parameterUnit":"m.s-1","parameterCategory":1,"la1":30.2991,"la2":30.254,"lo1":-89.0895,"lo2":-89.0444,"dy":0.0017,"dx":0.0017,"nx":28,"ny":28,"refTime":"2025-05-31T09:00:00:Z","depth":0,"parameterNumber":2,"parameterNumberName":"U-component_of_WINDS"},"data":[0,0,0,0,0,0,0,0,0,0,0,0,0,0,0,0,0,0,0,0,0,0,0,0,0,0,0,0,0,0,0,0,0,0,0,0,0,0,0,0,0,0,0,0,0,0,0,0,0,0,0,0,0,0,0,0,0,0,-1.0451,-1.0452,0,-1.0545,-1.0547,-1.0548,-1.0598,-1.0598,-1.0598,-1.0598,-1.0693,-1.0696,-1.0698,0,0,0,0,0,0,0,0,0,0,0,0,0,-1.0311,-1.0313,-1.0451,-1.0452,-1.0453,-1.0545,-1.0547,-1.0548,-1.0598,-1.0598,-1.0598,-1.0598,-1.0692,-1.0695,-1.0698,0,0,0,0,0,0,0,0,0,0,0,0,0,-1.0385,-1.0314,-1.045,-1.0489,-1.0493,-1.0545,-1.0547,-1.0548,-1.0597,-1.0598,-1.0598,-1.0598,-1.0692,-1.0695,-1.0699,-1.0719,0,0,-1.071,-1.0712,0,0,0,0,0,0,0,0,-1.0381,-1.039,-1.0482,-1.0486,-1.0491,-1.056,-1.0532,-1.0605,-1.0597,-1.0558,-1.0598,-1.0598,-1.0649,-1.0656,-1.0673,-1.0723,-1.0727,-1.071,-1.0713,-1.0714,-1.0715,0,0,0,0,0,0,0,-1.0376,-1.0386,-1.0488,-1.0483,-1.0489,-1.0501,-1.0512,-1.0546,-1.0601,-1.0561,-1.0565,-1.0576,-1.0651,-1.067,-1.0676,-1.0729,-1.071,-1.0714,-1.0716,-1.0717,-1.0799,-1.0799,0,0,0,0,0,0,-1.0365,-1.0382,-1.0485,-1.0491,-1.0435,-1.0503,-1.0515,-1.0538,-1.0601,-1.0611,-1.0576,-1.0578,-1.0663,-1.0672,-1.0679,-1.0707,-1.0714,-1.0718,-1.072,-1.0799,-1.0799,-1.0799,0,0,0,0,0,0,-1.0361,-1.0373,-1.0481,-1.0438,-1.0452,-1.0506,-1.053,-1.054,-1.0558,-1.0612,-1.0622,-1.0584,-1.0664,-1.0674,-1.0709,-1.0711,-1.0719,-1.0723,-1.0799,-1.0799,-1.0799,-1.0762,0,0,0,0,0,0,-1.0357,-1.0372,-1.0381,-1.0437,-1.0454,-1.0509,-1.0531,-1.0541,-1.0564,-1.0568,-1.0623,-1.0632,-1.0665,-1.0703,-1.0712,-1.0716,-1.0726,-1.0799,-1.0799,-1.0799,-1.0763,-1.076,-1.0758,0,0,0,0,0,-1.0352,-1.0366,-1.0381,-1.0393,-1.0466,-1.0509,-1.0519,-1.0557,-1.0564,-1.0573,-1.0608,-1.063,-1.0709,-1.0706,-1.0717,-1.0722,-1.0799,-1.0799,-1.0799,-1.0764,-1.0761,-1.0758,0,0,0,0,0,0,-1.0308,-1.0374,-1.0391,-1.0424,-1.0461,-1.0518,-1.053,-1.0552,-1.0587,-1.0589,-1.0634,-1.0646,-1.0676,-1.0702,-1.0698,-1.0744,-1.0757,-1.0759,-1.0726,-1.0723,-1.0721,-1.0714,-1.0729,0,0,0,0,0,-1.0302,-1.0332,-1.0388,-1.0412,-1.0429,-1.0476,-1.0497,-1.0522,-1.0562,-1.0577,-1.0615,-1.0651,-1.0685,-1.0705,-1.0739,-1.0767,-1.0779,-1.0776,-1.0773,-1.0771,-1.0772,-1.0788,-1.0787,-1.0799,-1.0799,-1.0799,0,0,-1.029,-1.033,-1.0346,-1.0404,-1.0435,-1.0465,-1.0489,-1.0519,-1.0541,-1.0582,-1.0617,-1.0645,-1.0689,-1.072,-1.0736,-1.0743,-1.0772,-1.0771,-1.0769,-1.0771,-1.0788,-1.0787,-1.0786,-1.0799,-1.0799,-1.0799,0,0,-1.0284,-1.0317,-1.034,-1.0371,-1.0418,-1.045,-1.0455,-1.0508,-1.0529,-1.0565,-1.0595,-1.0622,-1.0678,-1.0708,-1.0731,-1.0734,-1.0756,-1.0744,-1.0731,-1.0747,-1.0746,-1.0745,-1.0746,-1.0746,-1.0745,-1.0745,-1.0745,0,-1.0263,-1.0309,-1.0349,-1.0378,-1.0402,-1.044,-1.0463,-1.0491,-1.0546,-1.0562,-1.057,-1.0641,-1.0673,-1.0711,-1.0712,-1.0729,-1.0736,-1.0738,-1.0743,-1.0742,-1.0742,-1.0744,-1.0744,-1.0743,-1.0743,-1.0744,-1.0744,0,-1.0281,-1.0312,-1.0325,-1.0378,-1.0403,-1.0429,-1.0472,-1.0493,-1.0516,-1.0546,-1.0582,-1.0622,-1.0664,-1.0675,-1.0698,-1.0716,-1.0719,-1.0734,-1.0747,-1.0739,-1.0741,-1.0742,-1.0741,-1.0741,-1.0742,-1.0742,0,0,-1.025,-1.0324,-1.0328,-1.0352,-1.0407,-1.0431,-1.0458,-1.05,-1.0516,-1.0553,-1.0576,-1.0622,-1.0636,-1.0662,-1.0689,-1.0702,-1.0701,-1.0715,-1.0717,-1.0711,-1.0723,-1.0712,-1.0712,-1.0716,-1.0717,-1.0717,-1.0719,0,-1.0251,-1.0302,-1.0338,-1.0374,-1.0403,-1.044,-1.0463,-1.0498,-1.0527,-1.0555,-1.0586,-1.0618,-1.0634,-1.065,-1.0665,-1.0698,-1.0705,-1.0699,-1.0738,-1.0739,-1.0725,-1.0713,-1.0701,-1.0701,-1.0721,-1.0721,-1.0721,0,-1.0259,-1.0295,-1.0334,-1.0384,-1.0398,-1.0418,-1.0459,-1.0485,-1.0526,-1.0546,-1.0574,-1.0601,-1.063,-1.064,-1.0681,-1.0676,-1.0694,-1.0713,-1.0714,-1.0719,-1.0729,-1.0717,-1.0703,-1.0702,-1.0723,-1.0722,-1.0722,0,-1.0232,-1.0289,-1.032,-1.034,-1.04,-1.0413,-1.0439,-1.0479,-1.0502,-1.0537,-1.0551,-1.0589,-1.061,-1.0638,-1.0674,-1.0679,-1.0711,-1.0724,-1.0727,-1.0726,-1.0732,-1.0732,-1.072,-1.0744,-1.0744,-1.0744,-1.0744,0,-1.0229,-1.0251,-1.0309,-1.0327,-1.0353,-1.0395,-1.0419,-1.0447,-1.0483,-1.0508,-1.0541,-1.0563,-1.061,-1.0638,-1.0666,-1.0695,-1.0704,-1.072,-1.0728,-1.0717,-1.0715,-1.073,-1.073,-1.0744,-1.0744,-1.0744,-1.0744,0,-1.0203,-1.0242,-1.0278,-1.0332,-1.0346,-1.0362,-1.0408,-1.0428,-1.0458,-1.0488,-1.0497,-1.0544,-1.0579,-1.0618,-1.0665,-1.0684,-1.071,-1.0721,-1.0696,-1.0701,-1.0701,-1.07,-1.0699,-1.07,-1.0723,-1.0723,-1.0723,0,-1.0199,-1.0217,-1.0272,-1.0291,-1.0316,-1.0346,-1.0369,-1.041,-1.0432,-1.0479,-1.0492,-1.0529,-1.0561,-1.0613,-1.0651,-1.0687,-1.0699,-1.0696,-1.0704,-1.0693,-1.0698,-1.0696,-1.0698,-1.0693,-1.0693,-1.0692,-1.0692,0,-1.0186,-1.0205,-1.0237,-1.0275,-1.0301,-1.0333,-1.0367,-1.038,-1.0428,-1.0451,-1.0486,-1.0511,-1.0558,-1.0594,-1.0635,-1.066,-1.0684,-1.0689,-1.0692,-1.0681,-1.0666,-1.0673,-1.069,-1.0689,-1.0689,-1.0689,-1.069,-1.069,-1.0171,-1.0188,-1.023,-1.0264,-1.0293,-1.0324,-1.0344,-1.0377,-1.0407,-1.0449,-1.0471,-1.0506,-1.0546,-1.0602,-1.0627,-1.0654,-1.0662,-1.0666,-1.0667,-1.0667,-1.0664,-1.0661,-1.0662,-1.0662,-1.0662,-1.0662,-1.0663,0,-1.016,-1.0188,-1.0219,-1.0265,-1.0291,-1.0311,-1.0349,-1.037,-1.04,-1.0435,-1.0465,-1.0505,-1.054,-1.058,-1.0617,-1.0631,-1.0643,-1.064,-1.0639,-1.0644,-1.0655,-1.0649,-1.063,-1.063,-1.063,-1.063,-1.063,-1.063,-1.0157,-1.0188,-1.0211,-1.0255,-1.0284,-1.0318,-1.0338,-1.0366,-1.0394,-1.0437,-1.0466,-1.0492,-1.0529,-1.0569,-1.0601,-1.0612,-1.0624,-1.0617,-1.0631,-1.0641,-1.0644,-1.0646,-1.0641,-1.062,-1.062,-1.0618,-1.0618,-1.0618]},{"header":{"parameterUnit":"m.s-1","parameterCategory":1,"la1":30.2991,"la2":30.254,"lo1":-89.0895,"lo2":-89.0444,"dy":0.0017,"dx":0.0017,"nx":28,"ny":28,"refTime":"2025-05-31T09:00:00:Z","depth":0,"parameterNumber":3,"parameterNumberName":"V-component_of_WINDS"},"data":[0,0,0,0,0,0,0,0,0,0,0,0,0,0,0,0,0,0,0,0,0,0,0,0,0,0,0,0,0,0,0,0,0,0,0,0,0,0,0,0,0,0,0,0,0,0,0,0,0,0,0,0,0,0,0,0,0,0,-2.3746,-2.3747,0,-2.3845,-2.3846,-2.3847,-2.3837,-2.3835,-2.3834,-2.3832,-2.3931,-2.3935,-2.3939,0,0,0,0,0,0,0,0,0,0,0,0,0,-2.3548,-2.3552,-2.3746,-2.3747,-2.3749,-2.3844,-2.3846,-2.3847,-2.3837,-2.3835,-2.3833,-2.3832,-2.393,-2.3934,-2.3939,0,0,0,0,0,0,0,0,0,0,0,0,0,-2.3639,-2.3553,-2.3746,-2.3755,-2.3757,-2.3844,-2.3846,-2.3847,-2.3838,-2.3835,-2.3833,-2.3831,-2.3928,-2.3934,-2.394,-2.4023,0,0,-2.3959,-2.3961,0,0,0,0,0,0,0,0,-2.3634,-2.3646,-2.3753,-2.3755,-2.3757,-2.3826,-2.3812,-2.3906,-2.3838,-2.3807,-2.3832,-2.383,-2.3898,-2.3906,-2.393,-2.4028,-2.4032,-2.3959,-2.3963,-2.3965,-2.3967,0,0,0,0,0,0,0,-2.3627,-2.3642,-2.3785,-2.3754,-2.3757,-2.3754,-2.3764,-2.383,-2.3864,-2.3809,-2.3809,-2.3821,-2.3899,-2.3924,-2.3932,-2.4034,-2.3959,-2.3964,-2.3968,-2.397,-2.4205,-2.4207,0,0,0,0,0,0,-2.3619,-2.3637,-2.3782,-2.3788,-2.3689,-2.3759,-2.3771,-2.3806,-2.3863,-2.387,-2.3823,-2.382,-2.3915,-2.3925,-2.3935,-2.4036,-2.3965,-2.3971,-2.3974,-2.4202,-2.4205,-2.4208,0,0,0,0,0,0,-2.3615,-2.3632,-2.3778,-2.3712,-2.3731,-2.3765,-2.3805,-2.3809,-2.3835,-2.3873,-2.3879,-2.3842,-2.3913,-2.3927,-2.4002,-2.4039,-2.3974,-2.3979,-2.4199,-2.4203,-2.4207,-2.4239,0,0,0,0,0,0,-2.3609,-2.3631,-2.3663,-2.3713,-2.3734,-2.3843,-2.3807,-2.3813,-2.3845,-2.3843,-2.3893,-2.3899,-2.3912,-2.3993,-2.4008,-2.4047,-2.3984,-2.4196,-2.4201,-2.4206,-2.4235,-2.4243,-2.4251,0,0,0,0,0,-2.3602,-2.3668,-2.3665,-2.3682,-2.3775,-2.3845,-2.3857,-2.3871,-2.3849,-2.3881,-2.3906,-2.3898,-2.4033,-2.4,-2.4017,-2.4059,-2.4194,-2.42,-2.4205,-2.4231,-2.4242,-2.4251,0,0,0,0,0,0,-2.3621,-2.3675,-2.3672,-2.3756,-2.3796,-2.3844,-2.3885,-2.3882,-2.393,-2.3925,-2.394,-2.3952,-2.4027,-2.405,-2.4013,-2.4142,-2.411,-2.412,-2.4124,-2.4134,-2.4142,-2.4135,-2.3989,0,0,0,0,0,-2.3635,-2.3687,-2.3731,-2.3801,-2.3822,-2.385,-2.3881,-2.3889,-2.3931,-2.3947,-2.3978,-2.4018,-2.407,-2.4104,-2.4153,-2.4238,-2.4249,-2.4275,-2.4283,-2.429,-2.4297,-2.4343,-2.4355,-2.4227,-2.4227,-2.4227,0,0,-2.3663,-2.37,-2.3732,-2.3806,-2.3838,-2.3892,-2.3864,-2.3922,-2.3962,-2.3956,-2.4029,-2.4052,-2.4099,-2.4179,-2.4216,-2.4201,-2.4335,-2.4297,-2.4302,-2.4306,-2.4351,-2.4363,-2.4374,-2.4231,-2.4231,-2.423,0,0,-2.3743,-2.3777,-2.3838,-2.3871,-2.3921,-2.3939,-2.3954,-2.4002,-2.4018,-2.4091,-2.4088,-2.4135,-2.4224,-2.4257,-2.4286,-2.4379,-2.4373,-2.4395,-2.4437,-2.4482,-2.4492,-2.4501,-2.4534,-2.4545,-2.4403,-2.4403,-2.4403,0,-2.3773,-2.3854,-2.387,-2.3929,-2.3961,-2.3959,-2.4021,-2.4052,-2.4115,-2.4137,-2.412,-2.4231,-2.4263,-2.435,-2.4373,-2.4396,-2.4413,-2.4389,-2.4489,-2.4499,-2.4507,-2.4538,-2.4551,-2.4405,-2.4405,-2.4405,-2.4404,0,-2.3888,-2.3944,-2.3988,-2.405,-2.4087,-2.4147,-2.4171,-2.4207,-2.4212,-2.4232,-2.4306,-2.4344,-2.4401,-2.4423,-2.4427,-2.4511,-2.45,-2.4486,-2.4454,-2.4521,-2.4551,-2.4563,-2.4408,-2.4407,-2.4407,-2.4406,0,0,-2.3981,-2.4051,-2.4067,-2.4094,-2.4149,-2.4193,-2.4253,-2.431,-2.434,-2.4384,-2.4434,-2.451,-2.4497,-2.4529,-2.4538,-2.4578,-2.4648,-2.4559,-2.456,-2.4573,-2.4742,-2.4751,-2.4765,-2.4645,-2.4648,-2.465,-2.4738,0,-2.4065,-2.4172,-2.4188,-2.4282,-2.4334,-2.4334,-2.4386,-2.4425,-2.4446,-2.4492,-2.4515,-2.4568,-2.4548,-2.4567,-2.4607,-2.4631,-2.4682,-2.4625,-2.4691,-2.4693,-2.4678,-2.4781,-2.4791,-2.4872,-2.475,-2.4752,-2.4753,0,-2.4178,-2.4226,-2.4325,-2.4373,-2.4396,-2.4442,-2.4496,-2.4541,-2.4585,-2.4597,-2.4634,-2.4638,-2.4699,-2.4666,-2.475,-2.4711,-2.4739,-2.4756,-2.4759,-2.4765,-2.4726,-2.4788,-2.4898,-2.491,-2.4771,-2.477,-2.4769,0,-2.4235,-2.4324,-2.4395,-2.4419,-2.4477,-2.451,-2.4535,-2.4577,-2.461,-2.4657,-2.4678,-2.4731,-2.476,-2.4801,-2.4818,-2.4793,-2.4902,-2.487,-2.4913,-2.4912,-2.4935,-2.4933,-2.505,-2.4955,-2.4954,-2.4954,-2.4954,0,-2.4327,-2.4387,-2.4421,-2.4464,-2.4532,-2.455,-2.4616,-2.4641,-2.4678,-2.4726,-2.4729,-2.4773,-2.4795,-2.4843,-2.4857,-2.4924,-2.4938,-2.4949,-2.4951,-2.4948,-2.4946,-2.4965,-2.4959,-2.4957,-2.4957,-2.4956,-2.4956,0,-2.4401,-2.4426,-2.4503,-2.4552,-2.4566,-2.4613,-2.4655,-2.4697,-2.4718,-2.4778,-2.4793,-2.4826,-2.4882,-2.4905,-2.4973,-2.4983,-2.506,-2.506,-2.5046,-2.5046,-2.5088,-2.5083,-2.522,-2.5239,-2.5132,-2.5133,-2.5134,0,-2.4457,-2.4504,-2.4558,-2.4591,-2.4618,-2.467,-2.4704,-2.4724,-2.4759,-2.4814,-2.4849,-2.4905,-2.4951,-2.5042,-2.5071,-2.5123,-2.5123,-2.5167,-2.5131,-2.5125,-2.5122,-2.5119,-2.5123,-2.5174,-2.5175,-2.5176,-2.5176,0,-2.4554,-2.4565,-2.4614,-2.4668,-2.4709,-2.4753,-2.4795,-2.4821,-2.4847,-2.4887,-2.4945,-2.4981,-2.5052,-2.5107,-2.5162,-2.5187,-2.5186,-2.5188,-2.52,-2.5196,-2.5186,-2.5191,-2.5063,-2.5184,-2.5183,-2.5183,-2.5182,-2.5182,-2.462,-2.4662,-2.4707,-2.4762,-2.4796,-2.4836,-2.4877,-2.4904,-2.4953,-2.5013,-2.5022,-2.5084,-2.5127,-2.52,-2.5228,-2.5276,-2.5264,-2.5283,-2.5287,-2.5291,-2.5293,-2.518,-2.5286,-2.5286,-2.5286,-2.5286,-2.5286,0,-2.4717,-2.4746,-2.4797,-2.4856,-2.4899,-2.4896,-2.4943,-2.4979,-2.5034,-2.5075,-2.5121,-2.5187,-2.5242,-2.5276,-2.533,-2.5363,-2.5363,-2.5376,-2.5373,-2.5379,-2.5301,-2.5285,-2.5375,-2.5375,-2.5375,-2.5374,-2.5374,-2.5374,-2.4772,-2.4841,-2.4857,-2.4944,-2.4973,-2.5034,-2.5061,-2.5098,-2.513,-2.5205,-2.5251,-2.5273,-2.5311,-2.5369,-2.5418,-2.5427,-2.5446,-2.546,-2.5467,-2.5394,-2.5384,-2.5376,-2.536,-2.5464,-2.5464,-2.554,-2.5541,-2.5542]}]]